#timestamp,LO_Frequency,Hit 
1500440415.8,286047000.1,N
1500440435.6,286047000.3,N
1500440455.5,286047001.2,N
1500440475.3,286047001.2,N
1500440495.2,286047001.1,N
1500440515.9,286047000.4,N
1500440535.7,286047002.8,N
1500440555.6,286047002.6,N
1500440575.4,286047002.8,N
1500440595.2,286047002.7,N
1500440615.1,286046999.7,N
1500440616.0,286046999.7,N
1500440635.8,286047002.6,N
1500440655.7,286047002.8,N
1500440675.5,286047002.2,N
1500440695.3,286047011.9,N
1500440715.2,286047002.0,N
1500440735.0,286047000.0,N
1500440735.9,286047000.0,N
1500440755.7,286047002.4,N
1500440775.6,286047002.7,N
1500440795.4,286047000.5,N
1500440815.3,286046999.8,N
1500440835.1,286047001.4,N
1500440836.0,286047001.4,N
1500440855.8,286047002.6,N
1500440875.7,286047000.6,N
1500440895.5,286046998.1,N
1500440915.3,286047001.0,N
1500440935.2,286047001.1,N
1500440955.0,286047000.7,N
1500440955.9,286047000.7,N
1500440975.8,286046998.3,N
1500440995.6,286046998.9,N
1500441015.4,286047001.1,N
1500441035.3,286047001.2,N
1500441055.1,286047001.1,N
1500441075.9,286047002.8,N
1500441095.7,286047002.3,N
1500441115.5,286047000.3,N
1500441135.4,286047000.3,N
1500441155.2,286047002.8,N
1500441175.0,286047001.0,N
1500441175.9,286047001.0,N
1500441195.8,286047002.1,N
1500441215.6,286047001.5,N
1500441235.5,286046999.7,N
1500441255.3,286047002.7,N
1500441275.1,286047002.7,N
1500441295.9,286047000.3,N
1500441315.7,286047000.4,N
1500441335.5,286047000.3,N
1500441355.4,286047002.7,N
1500441375.2,286047000.1,N
1500441395.1,286046999.8,N
1500441396.0,286046999.8,N
1500441415.8,286047001.0,N
1500441435.6,286046999.7,N
1500441455.5,286047002.6,N
1500441475.3,286047002.8,N
1500441495.2,286047002.6,N
1500441515.9,286047002.1,N
1500441535.7,286047002.0,N
1500441555.6,286047002.5,N
1500441575.4,286047002.1,N
1500441595.2,286047002.0,N
1500441615.1,286047004.3,N
1500441616.0,286047004.3,N
1500441635.8,286047001.3,N
1500441655.7,286047001.7,N
1500441675.5,286047001.7,N
1500441695.3,286047002.6,N
1500441715.2,286047001.9,N
1500441735.0,286047001.9,N
1500441735.9,286047001.9,N
1500441755.8,286047002.5,N
1500441775.6,286047002.5,N
1500441795.4,286047004.4,N
1500441815.3,286047004.4,N
1500441835.1,286047004.0,N
1500441855.8,286047001.8,N
1500441875.7,286047002.0,N
1500441895.5,286047001.3,N
1500441915.4,286046999.7,N
1500441935.2,286047001.9,N
1500441955.0,286047001.8,N
1500441955.9,286047001.8,N
1500441975.8,286047002.2,N
1500441995.6,286047002.5,N
1500442015.5,286046999.7,N
1500442035.3,286047002.2,N
1500442055.1,286047002.4,N
1500442075.9,286047002.0,N
1500442095.7,286047002.1,N
1500442115.5,286047002.0,N
1500442135.4,286047002.1,N
1500442155.2,286047002.8,N
1500442175.1,286047002.7,N
1500442176.0,286047002.7,N
1500442195.8,286047002.4,N
1500442215.6,286047002.2,N
1500442235.5,286047002.4,N
1500442255.3,286046999.9,N
1500442275.2,286047002.7,N
1500442295.9,286046999.7,N
1500442315.7,286047000.1,N
1500442335.6,286047002.7,N
1500442355.4,286047002.1,N
1500442375.3,286047002.5,N
1500442395.1,286047002.1,N
1500442415.8,286047002.3,N
1500442435.7,286046999.9,N
1500442455.5,286047002.1,N
1500442475.4,286047002.2,N
1500442495.2,286047002.2,N
1500442515.0,286047002.9,N
1500442515.9,286047002.9,N
1500442535.8,286047004.7,N
1500442555.6,286047005.1,N
1500442575.5,286047003.0,N
1500442595.3,286047003.3,N
1500442615.1,286047001.3,N
1500442635.9,286047001.9,N
1500442655.7,286047004.1,N
1500442675.6,286047001.4,N
1500442695.4,286047001.7,N
1500442715.2,286047001.6,N
1500442735.1,286047011.9,N
1500442736.0,286047001.5,N
1500442755.8,286047004.4,N
1500442775.6,286047003.4,N
1500442795.5,286047003.7,N
1500442815.3,286047004.1,N
1500442835.2,286047004.3,N
1500442855.0,286047002.1,N
1500442855.9,286047002.1,N
1500442875.7,286047001.5,N
1500442895.6,286047002.4,N
1500442915.4,286047002.8,N
1500442935.3,286047002.4,N
1500442955.1,286047002.8,N
1500442975.8,286047000.3,N
1500442995.7,286046999.8,N
1500443015.5,286047000.4,N
1500443035.4,286047000.7,N
1500443055.2,286047001.1,N
1500443075.0,286047000.7,N
1500443075.9,286047000.7,N
1500443095.8,286047001.2,N
1500443115.6,286046998.1,N
1500443135.4,286047001.2,N
1500443155.3,286046998.3,N
1500443175.1,286046998.3,N
1500443195.9,286046999.1,N
1500443215.7,286046999.3,N
1500443235.5,286046996.9,N
1500443255.4,286046997.9,N
1500443275.2,286046997.6,N
1500443295.1,286046995.7,N
1500443296.0,286046995.7,N
1500443315.8,286046996.2,N
1500443335.6,286046994.2,N
1500443355.5,286046993.4,N
1500443375.3,286046995.9,N
1500443395.2,286046996.2,N
1500443415.9,286046993.9,N
1500443435.7,286046994.4,N
1500443455.6,286046995.7,N
1500443475.4,286046996.1,N
1500443495.2,286046993.4,N
1500443515.1,286046993.6,N
1500443516.0,286046993.6,N
1500443535.8,286046996.3,N
1500443555.7,286046996.0,N
1500443575.5,286046993.8,N
1500443595.3,286046994.8,N
1500443615.2,286046991.8,N
1500443635.0,286046994.2,N
1500443635.9,286046994.2,N
1500443655.8,286046994.6,N
1500443675.6,286046994.7,N
1500443695.4,286046992.2,N
1500443715.3,286046992.6,N
1500443735.1,286046992.9,N
1500443755.8,286046992.4,N
1500443775.7,286046992.9,N
1500443795.5,286046992.7,N
1500443815.4,286046990.5,N
1500443835.2,286046990.1,N
1500443855.0,286046993.0,N
1500443855.9,286046993.0,N
1500443875.8,286046992.9,N
1500443895.6,286046992.8,N
1500443915.5,286046990.6,N
1500443935.3,286046990.3,N
1500443955.1,286046991.4,N
1500443975.9,286046990.7,N
1500443995.7,286046990.8,N
